Location: Ammerl�gen
(47.2167°N, 9.6000°E)
Time: 03:03:31
(UTC+00:00)

Cosmos 676 Rocket - Pass Details

Date: 05 August 2021
Orbit: 755 x 783 km, 74.0° (Epoch: 18 September)

Event Time Altitude Azimuth Distance (km) Brightness Sun altitude
Exits shadow 01:18:00 44° 231° (SW) 1,069 4.3 -21.2°
Maximum altitude 01:19:33 66° 294° (WNW) 856 4.1 -21.1°
Drops below altitude 10° 01:24:52 10° 18° (NNE) 2,347 7.6 -20.7°
Sets 01:27:17 0° 21° (NNE) 3,277 8.8 -20.4°
